W4CKA Weather Reports


Display with metric or nautical units.
time (UTC)temp
F
wind
direction
speed
MPH
gust
MPH
rain 1hr
in
rain 24hr
in
rain mn
in
humidity
%
barometer
mb
20260504195653 76 350 3.0 4.0 0.00 0.00 0.00 52 1055.3
20260504194652 75 294 3.0 3.0 0.00 0.00 0.00 51 1055.9
20260504193650 75 36 3.0 5.0 0.00 0.00 0.00 56 1055.9
20260504192646 75 0 3.0 4.0 0.00 0.00 0.00 52 1056.0
20260504191642 74 315 2.0 5.0 0.00 0.00 0.00 55 1056.2
20260504190640 73 300 1.0 4.0 0.00 0.00 0.00 58 1056.6
20260504185639 73 328 3.0 4.0 0.00 0.00 0.00 53 1056.8
20260504184638 72 267 4.0 6.0 0.00 0.00 0.00 51 1056.8
20260504183636 72 251 4.0 4.0 0.00 0.00 0.00 53 1057.1
20260504182631 71 326 3.0 8.0 0.00 0.00 0.00 55 1057.0
20260504181631 72 307 3.0 4.0 0.00 0.00 0.00 55 1057.0
20260504180628 71 254 3.0 8.0 0.00 0.00 0.00 55 1057.3
20260504175623 70 277 3.0 9.0 0.00 0.00 0.00 53 1057.5
20260504174618 69 260 4.0 6.0 0.00 0.00 0.00 56 1057.5
20260504173617 69 263 3.0 5.0 0.00 0.00 0.00 57 1057.6
20260504172616 68 319 2.0 9.0 0.00 0.00 0.00 58 1057.7
20260504171615 67 77 1.0 10.0 0.00 0.00 0.00 58 1057.8
20260504170614 68 318 3.0 6.0 0.00 0.00 0.00 58 1057.9
20260504150548 56 17 3.0 4.0 0.00 0.00 0.00 71 1060.0
20260504140534 54 93 4.0 7.0 0.00 0.00 0.00 79 1060.9
20260504130527 49 57 4.0 6.0 0.00 0.00 0.00 83 1060.6
20260504110502 37 55 4.0 4.0 0.00 0.00 0.00 98 1059.1
20260504100448 37 48 2.0 3.0 0.00 0.00 0.00 97 1059.5
20260504081424 38 37 2.0 2.0 0.00 0.00 0.00 96 1059.6
20260504080422 39 151 0.0 1.0 0.00 0.00 0.00 96 1059.3
20260504070402 41 99 3.0 4.0 0.00 0.00 0.00 94 1059.3
20260504050328 42 71 2.0 3.0 0.00 0.00 0.00 90 1059.5
20260504045326 42 30 2.0 2.0 0.00 0.00 0.00 89 1059.3
20260504044320 43 349 0.0 2.0 0.00 0.00 0.00 87 1059.4
20260504043320 45 90 0.0 3.0 0.00 0.00 0.00 84 1059.4
20260504042320 44 20 0.0 0.0 0.00 0.00 0.00 85 1059.3
20260504041318 45 54 1.0 3.0 0.00 0.00 0.00 83 1059.4
20260504040318 46 110 3.0 5.0 0.00 0.00 0.00 82 1059.2
20260504035318 46 73 2.0 4.0 0.00 0.00 0.00 82 1059.2
20260504034312 46 101 3.0 4.0 0.00 0.00 0.00 84 1059.2
20260504033307 45 90 2.0 3.0 0.00 0.00 0.00 84 1058.8
20260504032306 45 36 2.0 3.0 0.00 0.00 0.00 83 1059.1
20260504031306 45 66 0.0 2.0 0.00 0.00 0.00 85 1059.2
20260504030306 46 36 2.0 3.0 0.00 0.00 0.00 82 1059.1
20260504025305 46 0 0.0 0.0 0.00 0.00 0.00 82 1059.1
20260504024304 46 9 2.0 3.0 0.00 0.00 0.00 82 1059.0
20260504023303 45 26 1.0 3.0 0.00 0.00 0.00 83 1059.1
20260504022301 46 26 2.0 2.0 0.00 0.00 0.00 82 1058.9
20260504021302 46 54 0.0 3.0 0.00 0.00 0.00 81 1058.8
20260504020301 47 294 1.0 1.0 0.00 0.00 0.00 79 1058.8
20260504015259 48 21 2.0 3.0 0.00 0.00 0.00 78 1058.8
20260504014257 48 277 1.0 1.0 0.00 0.00 0.00 78 1058.7
20260504013253 49 270 2.0 2.0 0.00 0.00 0.00 76 1058.5
20260504012253 49 286 0.0 2.0 0.00 0.00 0.00 75 1058.5
20260504011252 50 270 1.0 2.0 0.00 0.00 0.00 72 1058.6
20260504010250 50 278 1.0 2.0 0.00 0.00 0.00 70 1058.6
20260504005249 52 306 1.0 2.0 0.00 0.00 0.00 66 1058.6
20260504004244 52 90 0.0 2.0 0.00 0.00 0.00 65 1058.6
20260504003243 54 340 0.0 1.0 0.00 0.00 0.00 62 1058.1
20260504002242 54 315 0.0 0.0 0.00 0.00 0.00 64 1058.2
20260504001243 55 270 0.0 2.0 0.00 0.00 0.00 61 1057.9
20260504000242 57 77 0.0 0.0 0.00 0.00 0.00 53 1058.0
20260503235237 58 90 0.0 0.0 0.00 0.00 0.00 54 1058.2
20260503234233 60 0 1.0 1.0 0.00 0.00 0.00 50 1058.2
20260503233231 62 0 0.0 2.0 0.00 0.00 0.00 46 1058.4
20260503232231 63 233 3.0 3.0 0.00 0.00 0.00 44 1058.4
20260503231226 64 320 0.0 3.0 0.00 0.00 0.00 43 1058.4
20260503230226 64 348 1.0 3.0 0.00 0.00 0.00 43 1058.5
20260503225223 63 264 3.0 5.0 0.00 0.00 0.00 45 1058.5
20260503224218 64 324 2.0 3.0 0.00 0.00 0.00 43 1058.7
20260503223213 64 232 4.0 6.0 0.00 0.00 0.00 43 1058.8
20260503222213 64 254 6.0 7.0 0.00 0.00 0.00 42 1058.6
20260503221209 64 257 4.0 4.0 0.00 0.00 0.00 43 1058.9
20260503220208 65 320 2.0 4.0 0.00 0.00 0.00 44 1059.0
20260503215207 64 232 0.0 5.0 0.00 0.00 0.00 41 1058.9
20260503214207 64 227 5.0 8.0 0.00 0.00 0.00 42 1059.0
20260503213202 64 278 0.0 9.0 0.00 0.00 0.00 42 1059.2
20260503212202 66 284 3.0 6.0 0.00 0.00 0.00 41 1059.3
20260503211201 65 327 0.0 5.0 0.00 0.00 0.00 41 1059.2
20260503210201 64 10 4.0 8.0 0.00 0.00 0.00 38 1059.2
20260503205158 64 242 3.0 4.0 0.00 0.00 0.00 40 1059.6
20260503204158 65 236 2.0 3.0 0.00 0.00 0.00 39 1059.5
20260503203153 64 11 0.0 7.0 0.00 0.00 0.00 40 1059.7
20260503202154 64 267 0.0 6.0 0.00 0.00 0.00 38 1059.9
20260503201149 64 265 3.0 15.0 0.00 0.00 0.00 42 1060.1